Location: Baumgarten
(49.0970°N, 12.7493°E)
Time: 17:21:35
(UTC+00:00)

Cosmos 1892 - Pass Details

Date: 05 July 2020
Orbit: 505 x 524 km, 82.5° (Epoch: 11 August)

Event Time Altitude Azimuth Distance (km) Brightness Sun altitude
Exits shadow 21:06:46 21° 138° (SE) 1,188 3.9 -12.8°
Maximum altitude 21:08:33 32° 91° (E) 899 3.6 -13.0°
Drops below altitude 10° 21:11:58 10° 28° (NNE) 1,742 5.8 -13.3°
Sets 21:14:15 0° 18° (NNE) 2,638 7.0 -13.4°
